SCP
0 0 0 -0 -0 -0 -0 -0 -0 -0 -0 -0 -0 -0 -0 -0 -0 -0 0 0 0 0 0 -0 -0 -0 -0 -0 -0 -0 -0 -0 -0 -0 -0 -0 -0 -0 -0 -0 -0 -0 -0
-0 -0 0 -0 -0 -0 -0 -0 -0 -0 -0 -0 -0 -0 -0 -0 -0 -0 0 0 0 0 0 -0 -0 -0 0 -0 -0 -0 -0 -0 -0 0 0 -0 -0 -0 -0 -0 -0 -0 -0
-0 -0 -0 -0 -0 -0 -0 -0 -0 -0 -0 -0 -0 -0 -0 -0 -0 -0 -0 -0 -0 -0 -0 -0 -0 -0 -0 -0 -0 -0 -0 -0 0 0 0 -0 -0 -0 -0 -0 -0 -0 -0
-0 -0 -0 -0 -0 -0 -0 -0 -0 -0 -0 -0 -0 -0 -0 -0 -0 -0 -0 -0 -0 -0 -0 -0 -0 -0 -0 -0 -0 -0 -0 -0 0 0 0 -0 -0 -0 -0 -0 -0 -0 -0
-0 -0 -0 -0 -0 -0 -0 -0 -0 -0 -0 -0 -0 -0 -0 -0 -0 -0 -0 -0 -0 -0 -0 -0 -0 -0 -0 -0 -0 -0 -0 -0 0 -0 -0 -0 -0 -0 -0 -0 -0 -0 -0
-0 -0 -0 -0 -0 -0 -0 -0 -0 -0 -0 -0 -0 -0 -0 -0 -0 -0 -0 -0 -0 -0 -0 -0 -0 -0 -0 -0 -0 -0 -0 -0 -0 -0 -0 -0 0 -0 -0 -0 -0 -0 -0
-0 -0 -0 -0 -0 -0 -0 -0 -0 -0 -0 -0 -0 -0 -0 -0 -0 -0 -0 -0 -0 -0 -0 -0 -0 -0 -0 -0 -0 -0 -0 0 0 0 0 0 0 -0 -0 -0 -0 -0 -0
-0 -0 -0 -0 -0 -0 -0 -0 -0 -0 -0 -0 -0 -0 -0 -0 -0 -0 -0 -0 -0 -0 -0 -0 -0 -0 -0 -0 -0 -0 0 0 0 0 0 0 0 -0 -0 -0 -0 -0 -0
-0 -0 -0 -0 -0 -0 -0 -0 -0 -0 -0 -0 -0 -0 -0 -0 -0 -0 -0 -0 -0 -0 -0 -0 -0 -0 -0 -0 -0 -0 0 0 0 0 0 0 0 -0 0 -0 -0 -0 -0
-0 -0 -0 -0 -0 -0 -0 -0 -0 -0 -0 -0 -0 -0 -0 -0 -0 -0 0 -0 -0 -0 -0 -0 -0 -0 -0 -0 -0 0 0 0 0 0 0 0 -0 -0 -0 0 -0 -0 -0
0 0 0 0 0 0 0 0 -0 -0 0 0 0 0 -0 0 0 0 0 -0 -0 -0 -0 -0 -0 -0 -0 -0 0 0 0 0 0 0 0 0 -0 0 0 0 -0 0 0
0 0 0 0 0 0 0 0 0 0 0 0 0 0 0 0 0 0 0 -0 -0 -0 -0 -0 -0 0 0 0 0 0 0 0 0 0 0 -0 0 0 0 0 0 0 0
0 0 0 0 0 0 0 0 0 0 0 0 0 0 0 0 0 0 0 0 0 0 0 0 0 0 0 0 0 0 0 0 0 0 0 0 0 0 0 0 0 0 0
0 0 0 0 0 0 0 0 0 0 0 0 0 0 0 0 0 0 0 0 0 0 0 0 0 0 0 0 0 0 0 0 0 0 0 0 0 0 0 0 0 0 0
0 0 0 0 0 0 0 0 0 0 0 0 0 0 0 0 0 0 0 0 0 0 0 0 0 0 0 0 0 0 0 0 0 0 0 0 0 0 0 0 0 0 0
0 0 0 0 0 0 0 0 0 0 0 0 0 0 0 0 0 0 0 0 0 0 0 0 0 0 0 0 0 0 0 0 0 0 0 0 0 0 0 0 0 0 0
0 0 0 0 0 0 0 0 0 0 0 0 0 0 0 0 0 0 0 0 0 0 0 0 0 0 0 0 0 0 0 0 0 0 0 0 0 0 0 0 0 0 0
0 0 0 0 0 0 0 0 0 0 0 0 0 0 0 0 0 0 0 0 0 0 0 0 0 0 0 0 0 0 0 0 0 0 0 0 0 0 0 0 0 0 0
0 0 0 0 0 0 0 0 0 0 0 0 0 0 0 0 0 0 0 0 0 0 0 0 0 0 0 0 0 0 0 0 0 0 0 0 0 0 0 0 0 0 0
0 0 0 0 0 0 0 0 0 0 0 0 0 0 0 0 0 0 0 0 0 0 0 0 0 0 0 0 0 0 0 0 0 0 0 0 0 0 0 0 0 0 0
0 0 0 0 0 0 0 0 0 0 0 0 0 0 0 0 0 0 0 0 0 0 0 0 0 0 0 0 0 0 0 0 0 0 0 0 0 0 0 0 0 0 0
0 0 0 0 0 0 0 0 0 0 0 0 0 0 0 0 0 0 0 0 0 0 0 0 0 0 0 0 0 0 0 0 0 0 0 0 0 0 0 0 0 0 0
0 0 0 0 0 0 0 0 0 0 0 0 0 0 0 0 0 0 0 0 0 0 0 0 0 0 0 0 0 0 0 0 0 0 0 0 0 0 0 0 0 0 0
0 0 0 0 0 0 0 0 0 0 0 0 0 0 0 0 0 0 0 0 0 0 0 0 0 0 0 0 0 0 0 0 0 0 0 0 0 0 0 0 0 0 0
0 0 0 0 0 0 0 0 0 0 0 0 0 0 0 0 0 0 0 0 0 0 0 0 0 0 0 0 0 0 0 0 0 0 0 0 0 0 0 0 0 0 0
0 0 0 0 0 0 0 0 0 0 0 0 0 0 0 0 0 0 0 0 0 0 0 0 0 0 0 0 0 0 0 0 0 0 0 0 0 0 0 0 0 0 0
Wind_Speed_500mb
34 34 31 25 22 21 17 18 16 17 19 21 24 23 23 24 25 24 23 22 28 27 37 32 30 34 31 32 32 31 29 28 29 28 26 26 30 37 42 45 43 39 33
36 35 31 27 25 22 19 15 16 14 18 20 22 23 25 25 25 24 23 26 29 30 37 31 28 34 35 33 33 34 34 33 31 28 26 25 22 20 22 33 40 44 43
35 35 34 30 27 23 18 16 15 13 15 18 21 22 24 25 25 25 24 24 30 30 35 28 30 33 34 32 32 33 33 34 32 31 33 34 27 23 21 18 24 34 41
37 34 33 31 28 22 18 16 15 15 14 15 19 21 23 24 24 24 24 26 25 37 32 28 29 29 31 31 32 34 34 33 32 37 38 38 35 27 26 23 20 18 25
37 35 33 32 28 23 20 18 14 15 14 15 17 19 21 22 23 23 22 24 23 30 31 28 25 26 28 29 31 32 33 32 33 40 40 40 37 35 30 29 26 21 16
37 35 32 30 28 24 21 19 14 14 14 13 14 17 20 21 21 21 22 23 23 25 26 21 22 23 24 25 28 30 31 31 38 41 39 40 45 41 39 33 31 27 24
38 36 34 30 27 25 22 20 16 13 10 10 12 14 17 19 21 22 22 22 24 23 23 21 21 21 22 23 25 26 28 30 38 39 39 45 47 45 43 45 41 35 31
39 39 35 30 27 25 22 20 18 15 11 9 10 13 15 18 20 20 21 22 24 24 23 23 21 21 20 21 22 23 24 29 37 39 41 44 40 40 44 44 45 47 44
36 35 34 31 27 23 21 20 19 17 13 11 10 10 13 16 17 18 20 23 25 26 25 24 22 21 19 19 19 20 22 27 37 39 36 32 33 38 40 44 38 42 43
38 33 30 29 27 25 21 18 17 17 15 13 10 8 13 15 18 23 25 25 25 26 25 24 24 21 19 18 17 18 21 28 36 38 37 37 42 45 42 43 42 37 36
42 38 34 30 29 27 23 17 14 16 16 16 15 11 1 10 15 15 16 18 20 21 22 22 24 21 19 17 15 15 18 33 34 39 36 30 34 44 47 44 38 47 43
47 48 41 41 35 31 29 23 22 23 19 19 19 17 11 3 6 5 9 8 11 13 15 17 18 17 15 13 13 14 22 35 50 54 52 31 40 46 43 42 46 50 46
44 53 52 45 39 36 34 32 30 29 27 27 24 20 16 14 12 8 6 6 3 3 5 8 11 10 9 6 11 19 26 31 42 47 41 30 47 48 46 49 47 45 48
51 54 55 52 43 40 37 34 36 34 35 34 32 31 24 21 22 17 15 10 10 8 4 0 4 6 6 10 15 22 27 33 38 36 23 28 46 46 46 42 43 44 43
56 58 56 57 50 47 44 39 39 38 36 39 38 33 25 26 26 22 23 19 17 17 13 7 2 6 9 16 21 24 27 29 27 24 29 25 27 32 41 44 44 42 41
61 61 61 61 58 54 57 50 49 45 41 42 43 34 35 33 30 29 24 26 22 23 19 13 9 10 13 20 26 28 30 32 33 32 31 27 23 23 28 38 35 38 35
66 66 66 66 64 59 57 57 58 52 53 46 50 47 39 35 34 35 29 30 28 27 27 20 21 19 19 27 32 36 39 39 35 31 27 25 23 23 22 21 25 27 30
67 68 68 68 65 63 60 59 60 55 54 53 45 48 47 43 40 38 36 38 32 29 38 29 30 29 27 33 43 44 39 34 29 26 24 23 23 23 22 22 22 23 25
68 68 70 69 67 65 62 61 60 57 55 50 55 53 52 49 47 43 44 44 38 39 37 37 37 32 33 41 45 43 37 30 25 23 21 21 21 21 22 22 23 26 30
72 73 72 71 70 66 62 64 62 59 60 57 58 59 59 57 52 45 41 45 42 39 43 41 42 38 41 46 48 42 35 28 23 21 19 18 19 20 20 22 27 30 31
75 78 79 77 74 71 68 69 70 67 66 62 63 58 73 68 58 52 48 50 55 42 43 49 50 42 48 52 52 43 35 27 21 18 16 16 17 21 23 24 26 29 34
75 79 81 80 78 73 70 70 72 73 70 68 65 64 65 53 70 53 49 47 55 60 52 53 53 57 54 60 49 39 25 20 19 16 15 16 19 20 20 23 29 33 37
80 82 82 81 79 75 72 71 71 73 75 74 71 69 70 55 55 50 58 53 55 64 57 56 61 56 58 65 56 27 18 14 33 17 15 16 16 18 22 28 32 35 38
70 80 82 80 77 74 70 67 69 71 75 80 72 70 70 65 54 58 59 62 56 61 61 62 64 70 57 66 62 47 22 21 18 19 18 17 17 21 24 27 29 30 33
53 68 75 77 75 73 68 65 65 65 66 67 67 69 67 67 58 56 54 63 63 53 53 60 65 68 57 62 55 53 37 29 25 18 25 24 22 23 24 26 29 32 35
41 51 64 72 74 71 64 61 61 61 61 62 64 64 65 67 62 53 61 60 53 49 55 64 66 66 59 58 51 42 38 37 34 25 27 28 21 22 22 23 25 27 29
Wind_Direction_500mb
170 172 168 162 154 143 139 127 115 98 78 64 59 64 70 72 73 72 79 85 82 89 79 83 77 81 78 82 79 77 80 82 83 81 81 84 87 83 81 74 71 69 70
167 169 166 164 155 150 144 129 122 102 87 71 63 60 65 69 73 78 75 82 87 85 94 94 85 78 78 78 78 80 80 81 83 84 84 87 85 89 87 85 79 73 70
168 167 166 168 162 158 151 138 130 114 90 79 75 72 71 71 74 77 75 83 89 83 92 93 82 84 82 81 80 82 82 83 85 87 81 73 81 88 89 89 94 87 80
170 167 167 168 165 165 158 148 135 121 107 90 78 73 71 72 72 76 80 84 90 92 99 95 85 80 77 79 81 81 81 81 84 83 74 70 68 80 85 82 81 101 95
172 170 173 170 169 169 165 158 149 126 120 105 91 85 80 76 75 76 77 81 84 94 98 92 82 80 75 78 81 80 79 78 80 75 73 72 65 67 73 74 77 79 79
175 175 176 174 174 175 173 171 169 144 128 112 94 87 82 76 73 74 75 81 82 85 94 99 85 80 76 77 78 80 80 81 79 74 71 73 76 67 68 73 72 73 72
177 179 181 181 180 180 180 177 179 164 139 122 108 94 81 71 66 65 70 80 80 82 82 80 76 75 76 78 80 83 81 80 78 77 75 68 66 68 64 67 64 65 67
183 183 185 184 186 184 186 181 186 178 165 152 121 106 93 82 77 72 70 67 69 70 73 72 73 73 74 74 77 82 85 86 80 78 79 85 84 80 76 65 64 61 58
185 188 187 190 188 191 193 194 193 191 181 172 151 129 104 89 80 82 88 92 92 89 80 73 70 68 69 71 75 78 85 89 80 79 76 75 85 74 89 84 80 80 78
182 185 192 195 193 191 189 206 207 202 196 181 165 146 116 87 80 87 85 87 88 86 83 78 67 64 69 76 86 95 99 92 78 74 72 76 80 79 76 71 69 80 78
188 190 196 202 203 201 196 199 227 218 205 203 192 173 156 80 94 98 77 82 83 78 81 70 58 57 61 68 80 99 108 89 96 90 84 96 89 75 69 76 74 72 64
192 191 196 206 210 203 198 208 222 222 225 225 213 200 190 199 127 93 105 90 89 79 73 64 55 53 49 63 99 120 113 110 113 110 102 109 77 77 84 84 68 70 72
197 195 200 204 209 205 200 213 222 225 219 216 219 221 215 209 200 204 200 209 180 137 84 62 52 50 48 65 129 133 130 126 128 128 127 107 82 79 76 72 76 68 65
202 203 202 202 207 210 206 218 219 231 227 216 217 211 223 228 214 218 213 236 227 226 230 281 64 61 75 114 135 143 144 137 137 138 121 101 92 86 79 74 69 66 60
211 208 205 203 203 209 215 216 226 230 229 230 223 220 222 231 223 227 231 226 230 224 223 221 198 110 109 131 138 143 142 141 143 129 119 111 99 84 73 71 70 65 56
216 215 213 211 213 210 216 219 226 235 237 235 232 227 226 228 226 230 238 239 239 230 219 218 192 146 135 139 138 139 136 131 129 123 114 102 90 82 78 74 66 60 50
221 220 218 218 221 221 221 224 226 231 244 239 237 227 227 236 228 230 236 238 240 234 227 213 183 155 149 146 139 135 131 126 122 115 108 100 92 84 81 65 47 40 41
224 223 220 222 225 227 222 223 228 233 234 230 235 231 232 230 239 237 234 238 234 242 221 201 180 157 156 153 143 138 136 130 123 115 106 98 87 77 66 55 46 37 32
227 225 224 225 227 229 230 228 228 226 231 229 230 232 232 233 238 232 252 235 239 255 216 192 181 171 167 161 153 146 141 135 125 112 101 92 83 77 66 56 45 38 34
229 228 227 228 230 230 229 228 229 226 231 231 235 232 228 238 236 248 260 256 247 229 204 193 188 175 174 173 163 152 145 138 126 117 105 93 82 73 66 54 44 39 34
230 229 229 229 230 231 230 228 229 227 226 231 236 238 229 245 230 243 258 241 228 234 207 193 190 192 181 182 172 156 147 143 138 125 105 92 82 71 61 52 47 44 40
235 232 231 231 232 233 233 234 233 232 227 227 231 234 235 240 231 228 245 237 241 217 201 201 204 188 192 183 182 167 151 155 158 139 116 96 82 75 65 55 49 45 41
232 231 231 230 231 232 233 236 234 230 228 225 226 228 232 238 240 226 245 249 234 224 214 206 202 208 204 193 188 175 166 178 174 153 119 106 95 82 69 61 55 49 43
232 229 228 228 230 231 235 236 235 235 222 223 226 229 226 237 239 241 230 232 235 217 210 204 207 204 210 203 198 200 195 198 172 165 150 124 109 92 82 72 63 53 46
232 232 229 229 231 232 233 232 228 224 224 227 224 224 233 231 229 229 234 228 212 211 204 209 214 211 214 209 211 215 222 210 190 170 163 155 123 102 88 74 62 53 46
228 228 227 228 230 231 231 230 227 224 224 227 228 227 227 234 222 232 224 216 214 203 207 209 212 211 213 214 222 229 214 193 196 180 149 155 149 118 94 75 63 54 44
Wind_Speed_850mb
34 34 31 25 22 21 17 18 16 17 19 21 24 23 23 24 25 24 23 22 28 27 37 32 30 34 31 32 32 31 29 28 29 28 26 26 30 37 42 45 43 39 33
36 35 31 27 25 22 19 15 16 14 18 20 22 23 25 25 25 24 23 26 29 30 37 31 28 34 35 33 33 34 34 33 31 28 26 25 22 20 22 33 40 44 43
35 35 34 30 27 23 18 16 15 13 15 18 21 22 24 25 25 25 24 24 30 30 35 28 30 33 34 32 32 33 33 34 32 31 33 34 27 23 21 18 24 34 41
37 34 33 31 28 22 18 16 15 15 14 15 19 21 23 24 24 24 24 26 25 37 32 28 29 29 31 31 32 34 34 33 32 37 38 38 35 27 26 23 20 18 25
37 35 33 32 28 23 20 18 14 15 14 15 17 19 21 22 23 23 22 24 23 30 31 28 25 26 28 29 31 32 33 32 33 40 40 40 37 35 30 29 26 21 16
37 35 32 30 28 24 21 19 14 14 14 13 14 17 20 21 21 21 22 23 23 25 26 21 22 23 24 25 28 30 31 31 38 41 39 40 45 41 39 33 31 27 24
38 36 34 30 27 25 22 20 16 13 10 10 12 14 17 19 21 22 22 22 24 23 23 21 21 21 22 23 25 26 28 30 38 39 39 45 47 45 43 45 41 35 31
39 39 35 30 27 25 22 20 18 15 11 9 10 13 15 18 20 20 21 22 24 24 23 23 21 21 20 21 22 23 24 29 37 39 41 44 40 40 44 44 45 47 44
36 35 34 31 27 23 21 20 19 17 13 11 10 10 13 16 17 18 20 23 25 26 25 24 22 21 19 19 19 20 22 27 37 39 36 32 33 38 40 44 38 42 43
38 33 30 29 27 25 21 18 17 17 15 13 10 8 13 15 18 23 25 25 25 26 25 24 24 21 19 18 17 18 21 28 36 38 37 37 42 45 42 43 42 37 36
42 38 34 30 29 27 23 17 14 16 16 16 15 11 1 10 15 15 16 18 20 21 22 22 24 21 19 17 15 15 18 33 34 39 36 30 34 44 47 44 38 47 43
47 48 41 41 35 31 29 23 22 23 19 19 19 17 11 3 6 5 9 8 11 13 15 17 18 17 15 13 13 14 22 35 50 54 52 31 40 46 43 42 46 50 46
44 53 52 45 39 36 34 32 30 29 27 27 24 20 16 14 12 8 6 6 3 3 5 8 11 10 9 6 11 19 26 31 42 47 41 30 47 48 46 49 47 45 48
51 54 55 52 43 40 37 34 36 34 35 34 32 31 24 21 22 17 15 10 10 8 4 0 4 6 6 10 15 22 27 33 38 36 23 28 46 46 46 42 43 44 43
56 58 56 57 50 47 44 39 39 38 36 39 38 33 25 26 26 22 23 19 17 17 13 7 2 6 9 16 21 24 27 29 27 24 29 25 27 32 41 44 44 42 41
61 61 61 61 58 54 57 50 49 45 41 42 43 34 35 33 30 29 24 26 22 23 19 13 9 10 13 20 26 28 30 32 33 32 31 27 23 23 28 38 35 38 35
66 66 66 66 64 59 57 57 58 52 53 46 50 47 39 35 34 35 29 30 28 27 27 20 21 19 19 27 32 36 39 39 35 31 27 25 23 23 22 21 25 27 30
67 68 68 68 65 63 60 59 60 55 54 53 45 48 47 43 40 38 36 38 32 29 38 29 30 29 27 33 43 44 39 34 29 26 24 23 23 23 22 22 22 23 25
68 68 70 69 67 65 62 61 60 57 55 50 55 53 52 49 47 43 44 44 38 39 37 37 37 32 33 41 45 43 37 30 25 23 21 21 21 21 22 22 23 26 30
72 73 72 71 70 66 62 64 62 59 60 57 58 59 59 57 52 45 41 45 42 39 43 41 42 38 41 46 48 42 35 28 23 21 19 18 19 20 20 22 27 30 31
75 78 79 77 74 71 68 69 70 67 66 62 63 58 73 68 58 52 48 50 55 42 43 49 50 42 48 52 52 43 35 27 21 18 16 16 17 21 23 24 26 29 34
75 79 81 80 78 73 70 70 72 73 70 68 65 64 65 53 70 53 49 47 55 60 52 53 53 57 54 60 49 39 25 20 19 16 15 16 19 20 20 23 29 33 37
80 82 82 81 79 75 72 71 71 73 75 74 71 69 70 55 55 50 58 53 55 64 57 56 61 56 58 65 56 27 18 14 33 17 15 16 16 18 22 28 32 35 38
70 80 82 80 77 74 70 67 69 71 75 80 72 70 70 65 54 58 59 62 56 61 61 62 64 70 57 66 62 47 22 21 18 19 18 17 17 21 24 27 29 30 33
53 68 75 77 75 73 68 65 65 65 66 67 67 69 67 67 58 56 54 63 63 53 53 60 65 68 57 62 55 53 37 29 25 18 25 24 22 23 24 26 29 32 35
41 51 64 72 74 71 64 61 61 61 61 62 64 64 65 67 62 53 61 60 53 49 55 64 66 66 59 58 51 42 38 37 34 25 27 28 21 22 22 23 25 27 29
Wind_Direction_850mb
170 172 168 162 154 143 139 127 115 98 78 64 59 64 70 72 73 72 79 85 82 89 79 83 77 81 78 82 79 77 80 82 83 81 81 84 87 83 81 74 71 69 70
167 169 166 164 155 150 144 129 122 102 87 71 63 60 65 69 73 78 75 82 87 85 94 94 85 78 78 78 78 80 80 81 83 84 84 87 85 89 87 85 79 73 70
168 167 166 168 162 158 151 138 130 114 90 79 75 72 71 71 74 77 75 83 89 83 92 93 82 84 82 81 80 82 82 83 85 87 81 73 81 88 89 89 94 87 80
170 167 167 168 165 165 158 148 135 121 107 90 78 73 71 72 72 76 80 84 90 92 99 95 85 80 77 79 81 81 81 81 84 83 74 70 68 80 85 82 81 101 95
172 170 173 170 169 169 165 158 149 126 120 105 91 85 80 76 75 76 77 81 84 94 98 92 82 80 75 78 81 80 79 78 80 75 73 72 65 67 73 74 77 79 79
175 175 176 174 174 175 173 171 169 144 128 112 94 87 82 76 73 74 75 81 82 85 94 99 85 80 76 77 78 80 80 81 79 74 71 73 76 67 68 73 72 73 72
177 179 181 181 180 180 180 177 179 164 139 122 108 94 81 71 66 65 70 80 80 82 82 80 76 75 76 78 80 83 81 80 78 77 75 68 66 68 64 67 64 65 67
183 183 185 184 186 184 186 181 186 178 165 152 121 106 93 82 77 72 70 67 69 70 73 72 73 73 74 74 77 82 85 86 80 78 79 85 84 80 76 65 64 61 58
185 188 187 190 188 191 193 194 193 191 181 172 151 129 104 89 80 82 88 92 92 89 80 73 70 68 69 71 75 78 85 89 80 79 76 75 85 74 89 84 80 80 78
182 185 192 195 193 191 189 206 207 202 196 181 165 146 116 87 80 87 85 87 88 86 83 78 67 64 69 76 86 95 99 92 78 74 72 76 80 79 76 71 69 80 78
188 190 196 202 203 201 196 199 227 218 205 203 192 173 156 80 94 98 77 82 83 78 81 70 58 57 61 68 80 99 108 89 96 90 84 96 89 75 69 76 74 72 64
192 191 196 206 210 203 198 208 222 222 225 225 213 200 190 199 127 93 105 90 89 79 73 64 55 53 49 63 99 120 113 110 113 110 102 109 77 77 84 84 68 70 72
197 195 200 204 209 205 200 213 222 225 219 216 219 221 215 209 200 204 200 209 180 137 84 62 52 50 48 65 129 133 130 126 128 128 127 107 82 79 76 72 76 68 65
202 203 202 202 207 210 206 218 219 231 227 216 217 211 223 228 214 218 213 236 227 226 230 281 64 61 75 114 135 143 144 137 137 138 121 101 92 86 79 74 69 66 60
211 208 205 203 203 209 215 216 226 230 229 230 223 220 222 231 223 227 231 226 230 224 223 221 198 110 109 131 138 143 142 141 143 129 119 111 99 84 73 71 70 65 56
216 215 213 211 213 210 216 219 226 235 237 235 232 227 226 228 226 230 238 239 239 230 219 218 192 146 135 139 138 139 136 131 129 123 114 102 90 82 78 74 66 60 50
221 220 218 218 221 221 221 224 226 231 244 239 237 227 227 236 228 230 236 238 240 234 227 213 183 155 149 146 139 135 131 126 122 115 108 100 92 84 81 65 47 40 41
224 223 220 222 225 227 222 223 228 233 234 230 235 231 232 230 239 237 234 238 234 242 221 201 180 157 156 153 143 138 136 130 123 115 106 98 87 77 66 55 46 37 32
227 225 224 225 227 229 230 228 228 226 231 229 230 232 232 233 238 232 252 235 239 255 216 192 181 171 167 161 153 146 141 135 125 112 101 92 83 77 66 56 45 38 34
229 228 227 228 230 230 229 228 229 226 231 231 235 232 228 238 236 248 260 256 247 229 204 193 188 175 174 173 163 152 145 138 126 117 105 93 82 73 66 54 44 39 34
230 229 229 229 230 231 230 228 229 227 226 231 236 238 229 245 230 243 258 241 228 234 207 193 190 192 181 182 172 156 147 143 138 125 105 92 82 71 61 52 47 44 40
235 232 231 231 232 233 233 234 233 232 227 227 231 234 235 240 231 228 245 237 241 217 201 201 204 188 192 183 182 167 151 155 158 139 116 96 82 75 65 55 49 45 41
232 231 231 230 231 232 233 236 234 230 228 225 226 228 232 238 240 226 245 249 234 224 214 206 202 208 204 193 188 175 166 178 174 153 119 106 95 82 69 61 55 49 43
232 229 228 228 230 231 235 236 235 235 222 223 226 229 226 237 239 241 230 232 235 217 210 204 207 204 210 203 198 200 195 198 172 165 150 124 109 92 82 72 63 53 46
232 232 229 229 231 232 233 232 228 224 224 227 224 224 233 231 229 229 234 228 212 211 204 209 214 211 214 209 211 215 222 210 190 170 163 155 123 102 88 74 62 53 46
228 228 227 228 230 231 231 230 227 224 224 227 228 227 227 234 222 232 224 216 214 203 207 209 212 211 213 214 222 229 214 193 196 180 149 155 149 118 94 75 63 54 44